Regional Weather Roundup
Issued by NWS

Home | Current Version | Previous Version | Graphics & Text | Print | Product List | Glossary On
Versions: 1 2 3 4 5 6 7 8 9 10 11 12 13 14 15 16 17 18 19 20 21 22 23 24 25 26 27
000
ASUS45 KTFX 251310
RWRMT
MONTANA REGIONAL WEATHER ROUNDUP
NATIONAL WEATHER SERVICE GREAT FALLS MT
700 AM MDT MON SEP 25 2017

NOTE: "FAIR" INDICATES FEW OR NO CLOUDS BELOW 12000 FEET WITH NO
SIGNIFICANT WEATHER AND/OR OBSTRUCTIONS TO VISIBILITY.

MTZ001>007-043-251400-
WEST OF THE DIVIDE

CITY           SKY/WX    TMP DP  RH WIND       PRES   REMARKS
KALISPELL      CLOUDY    46  43  89 CALM      30.06S
MISSOULA       CLOUDY    45  42  89 CALM      30.10R
BUTTE          CLOUDY    29  27  92 S3        30.13R
MULLAN PASS    CLOUDY    39  35  86 VRB3      30.11S
ANACONDA         N/A     37  30  75 SE6       30.11R
DEER LODGE       N/A     36  34  93 CALM      30.13R
EUREKA           N/A     48  39  71 MISG      30.05S
HAMILTON         N/A     46  36  66 S7        30.10S
LIBBY            N/A     45  43  93 CALM      30.05S
$$

MTZ008-052>055-251400-
SOUTHWEST MONTANA

CITY           SKY/WX    TMP DP  RH WIND       PRES   REMARKS
BOZEMAN        PTCLDY    29  27  92 SE7       30.13R WCI  22
DILLON         CLOUDY    34  27  75 S5        30.12R
W YELLOWSTONE  CLOUDY    27  25  93 CALM      30.13R
ENNIS          CLEAR     25  23  93 CALM      30.18R
THREE FORKS      N/A     28  26  92 CALM      30.10R
$$

MTZ009-010-012-014-046-048-049-054-251400-
EAST SLOPES AND CENTRAL MONTANA

CITY           SKY/WX    TMP DP  RH WIND       PRES   REMARKS
CUT BANK       CLEAR     29  27  92 NW3       30.02R
GREAT FALLS    CLEAR     40  30  67 S12       30.04S
MALMSTROM AFB  CLEAR     33  30  90 S5        30.06R
HELENA         CLOUDY    35  33  92 SE3       30.10S
BOWMANS CRNR   MOCLDY    38  31  77 S10       30.04R WCI  31
CHOTEAU          N/A     36  32  87 SW5       30.05S
FAIRFIELD        N/A     38  30  72 CALM      30.04R
POWER            N/A     32  29  86 SW3       30.04R
RAYNESFORD       N/A     32  28  83 CALM      30.07R
ULM              N/A     37  31  77 S7        30.06R
$$

MTZ011-013-016-021-045-047-050-051-251400-
NORTH CENTRAL MONTANA

CITY           SKY/WX    TMP DP  RH WIND       PRES   REMARKS
HAVRE          CLEAR     30  28  92 SE5       30.05S
LEWISTOWN      CLEAR     31  28  89 E5        30.07R
N BAR RANCH      N/A     30  27  86 NW3       30.10R
CHINOOK          N/A     36  34  93 E5        30.06R
DENTON           N/A     33  30  88 S9        30.03S WCI  26
GEYSER           N/A     38  29  70 SW13      30.06R WCI  30
JUDITH GAP       N/A     33  30  90 S6        30.08R WCI  27
WINIFRED         N/A     36  31  85 E3        30.06R
$$

MTZ017>020-022>027-061-062-251400-
NORTHEAST MONTANA

CITY           SKY/WX    TMP DP  RH WIND       PRES   REMARKS
GLASGOW        CLOUDY    39  37  92 E9        30.12R
JORDAN           N/A     29  26  89 CALM      30.12R
SIDNEY           N/A    N/A N/A N/A MISG        N/A
WOLF POINT     FOG       33  32  96 NE5       30.16R VSB 1/4
MALTA          PTCLDY    41  37  87 SE5       30.10R
PLENTYWOOD       N/A     36  34  93 CALM      30.15R
POPLAR           N/A     30  30 100 N3        30.16F VSB 1/2
SCOBEY           N/A     38  32  79 MISG      30.12R
$$

MTZ028>42-056>058-251400-
SOUTHCENTRAL AND SOUTHEAST MONTANA

CITY           SKY/WX    TMP DP  RH WIND       PRES   REMARKS
BAKER          CLOUDY    41  38  89 SE3       30.15F
BILLINGS       CLOUDY    38  36  92 S3        30.10R
LIVINGSTON     CLEAR     30  27  88 NW3       30.11R
MILES CITY     PTCLDY    36  35  96 SE6       30.14R WCI  31
BIG TIMBER     CLEAR     32  30  93 W7        30.12R WCI  26
EKALAKA          N/A     39  36  89 SE2       30.10R
HARLOWTON        N/A     30  28  91 MISG      30.09S
LAUREL           N/A     36  34  93 CALM      30.11S
$$

REGIONAL REPORTS...DAKOTAS

CITY           SKY/WX    TMP DP  RH WIND       PRES   REMARKS
WILLISTON      CLOUDY    46  44  93 CALM      30.16S
MINOT          CLOUDY    47  44  90 N3        30.15R
DICKINSON      LGT RAIN  43  42  97 CALM      30.15R FOG
BEACH          CLOUDY    43  39  87 E8        30.18R
CROSBY         CLOUDY    43  43 100 W3        30.17R
TIOGA          CLOUDY    43  43 100 CALM      30.17R
BISMARCK       CLOUDY    48  45  89 CALM      30.17R
GRAND FORKS    CLOUDY    49  47  93 N10       30.12R
FARGO          CLOUDY    49  47  93 N14       30.10R
BUFFALO SD       N/A     42  40  92 SW3       30.08S
RAPID CITY     CLOUDY    45  43  93 NE3       30.13S
$$

REGIONAL REPORTS...WYOMING/IDAHO/WASHINGTON

CITY           SKY/WX    TMP DP  RH WIND       PRES   REMARKS
GILLETTE       CLOUDY    40  40 100 SW3       30.12S
SHERIDAN       LGT RAIN  43  43 100 SE3       30.12R
BUFFALO WY     LGT RAIN  39  37  92 SE3       30.12S
CODY           LGT RAIN  40  36  86 S6        30.11S
IDAHO FALLS    CLEAR     33  30  88 W3        30.13R
SALMON         CLOUDY    41  37  86 CALM      30.14R
BOISE          CLEAR     42  33  70 SE8       30.09R
SPOKANE        MOCLDY    51  44  77 S5        30.07R
$$

REGIONAL REPORTS...ALBERTA

CITY           SKY/WX    TMP DP  RH WIND       PRES   REMARKS
EDMONTON       PTCLDY    46  46 100 SW5       29.90R
CALGARY        MOCLDY    45  36  70 CALM      29.97S
LETHBRIDGE     MOCLDY    46  36  66 SW8       29.97S
MEDICINE HAT   PTCLDY    34  28  80 SE3       29.99R
$$

REGIONAL REPORTS...SASKATCHEWAN

CITY           SKY/WX    TMP DP  RH WIND       PRES   REMARKS
SWIFT CURRENT    N/A     36  32  87 S13       30.03S WCI  27
REGINA         CLOUDY    45  37  76 VRB6      30.12R
SASKATOON      PTCLDY    36  32  87 S7        30.07S WCI  30
$$




USA.gov is the U.S. government's official web portal to all federal, state and local government web resources and services.